GW4151 Weather Reports


time (UTC)temp
F
wind
direction
speed
knots
gust
knots
rain 1hr
in
rain 24hr
in
rain mn
in
humidity
%
barometer
mb
20260510214102 58 296 4.3 7.0 0.00 0.00 0.00 36 999.1
20260510212558 58 243 2.6 7.8 0.00 0.00 0.00 37 999.4
20260510211057 59 212 4.3 9.6 0.00 0.00 0.00 36 999.2
20260510205555 59 254 5.2 7.0 0.00 0.00 0.00 35 999.1
20260510204050 60 219 2.6 5.2 0.00 0.00 0.00 38 999.1
20260510202548 60 209 3.5 3.5 0.00 0.00 0.00 35 999.0
20260510201044 58 173 3.5 9.6 0.00 0.00 0.00 37 999.4
20260510195542 57 245 5.2 11.3 0.00 0.00 0.00 35 999.5
20260510194041 57 191 3.5 7.8 0.00 0.00 0.00 37 999.4
20260510192537 58 234 3.5 5.2 0.00 0.00 0.00 37 999.7
20260510191032 56 271 5.2 7.0 0.00 0.00 0.00 37 999.7
20260510185529 57 303 5.2 8.7 0.00 0.00 0.00 36 999.8
20260510184025 56 219 6.1 8.7 0.00 0.00 0.00 37 999.8
20260510182520 56 257 3.5 8.7 0.00 0.00 0.00 39 999.8
20260510181020 55 269 1.7 5.2 0.00 0.00 0.00 39 999.5
20260510175515 56 255 4.3 9.6 0.00 0.00 0.00 39 999.3
20260510174013 55 247 4.3 7.8 0.00 0.00 0.00 37 999.1
20260510172512 57 291 6.1 8.7 0.00 0.00 0.00 38 998.9
20260510171008 56 247 4.3 9.6 0.00 0.00 0.00 38 999.2
20260510165508 55 270 5.2 7.8 0.00 0.00 0.00 38 999.1
20260510164004 55 291 6.1 9.6 0.00 0.00 0.00 38 999.0
20260510162504 55 255 6.1 8.7 0.00 0.00 0.00 36 999.0
20260510160959 55 249 7.0 7.8 0.00 0.00 0.00 36 998.9
20260510155458 56 280 2.6 7.0 0.00 0.00 0.00 36 998.8
20260510153955 55 269 5.2 7.8 0.00 0.00 0.00 37 998.8
20260510152452 55 306 6.1 8.7 0.00 0.00 0.00 39 998.6
20260510150947 55 173 1.7 5.2 0.00 0.00 0.00 40 998.6
20260510145442 54 261 1.7 2.6 0.00 0.00 0.00 39 998.4
20260510143942 56 289 0.9 2.6 0.00 0.00 0.00 39 998.1
20260510142438 53 175 0.0 5.2 0.00 0.00 0.00 39 998.2
20260510140935 53 198 1.7 3.5 0.00 0.00 0.00 43 998.1
20260510135432 53 159 0.9 1.7 0.00 0.00 0.00 42 998.1
20260510133928 53 153 0.9 0.9 0.00 0.00 0.00 41 998.0
20260510132423 51 113 0.9 1.7 0.00 0.00 0.00 45 997.7
20260510130920 52 180 0.0 1.7 0.00 0.00 0.00 49 997.6
20260510125415 53 241 1.7 1.7 0.00 0.00 0.00 46 997.5
20260510123911 53 165 0.0 0.9 0.00 0.00 0.00 53 997.4
20260510122410 52 182 0.0 0.9 0.00 0.00 0.00 60 997.3
20260510120908 48 180 0.0 0.9 0.00 0.00 0.00 64 997.0
20260510115403 48 190 0.0 0.0 0.00 0.00 0.00 66 997.1
20260510113902 44 188 0.0 0.0 0.00 0.00 0.00 76 996.9
20260510112358 41 188 0.0 0.0 0.00 0.00 0.00 77 996.6
20260510110858 37 188 0.0 0.0 0.00 0.00 0.00 87 996.1
20260510105356 34 185 0.0 0.0 0.00 0.00 0.00 90 996.1
20260510103851 34 185 0.0 0.0 0.00 0.00 0.00 89 996.0
20260510102346 34 186 0.0 0.0 0.00 0.00 0.00 90 995.8
20260510100843 33 186 0.0 0.0 0.00 0.00 0.00 90 995.5
20260510095338 33 186 0.0 0.0 0.00 0.00 0.00 88 995.2
20260510093836 34 186 0.0 0.0 0.00 0.00 0.00 87 995.2
20260510092336 35 186 0.0 0.0 0.00 0.00 0.00 84 994.9
20260510090831 36 187 0.0 0.0 0.00 0.00 0.00 84 994.6
20260510085330 36 177 0.0 0.0 0.00 0.00 0.00 83 994.5
20260510083826 36 196 0.0 0.0 0.00 0.00 0.00 83 994.2
20260510082321 37 194 0.0 0.0 0.00 0.00 0.00 80 994.0
20260510080818 38 184 0.0 0.0 0.00 0.00 0.00 77 993.8
20260510075313 39 193 0.0 0.0 0.00 0.00 0.00 74 993.7
20260510073809 39 165 0.0 0.0 0.00 0.00 0.00 75 993.3
20260510072306 41 186 0.0 0.9 0.00 0.00 0.00 71 993.2
20260510070802 42 93 0.9 0.9 0.00 0.00 0.00 67 992.9
20260510065301 43 154 0.0 0.9 0.00 0.00 0.00 65 993.0
20260510063757 44 116 0.9 1.7 0.00 0.00 0.00 65 992.8
20260510062257 44 126 0.9 0.9 0.00 0.00 0.00 66 993.1
20260510060757 45 38 1.7 2.6 0.00 0.00 0.00 64 992.9
20260510055256 46 320 5.2 7.0 0.00 0.00 0.00 61 992.7
20260510053751 47 6 4.3 11.3 0.00 0.00 0.00 63 992.3
20260510052251 47 18 2.6 3.5 0.00 0.00 0.00 65 991.8
20260510050747 48 310 1.7 5.2 0.00 0.00 0.00 63 991.3
20260510045243 48 24 2.6 3.5 0.00 0.00 0.00 63 991.0
20260510043739 48 167 0.0 5.2 0.00 0.00 0.00 64 990.6
20260510042235 49 259 1.7 5.2 0.00 0.00 0.00 65 990.4
20260510040732 50 338 1.7 5.2 0.00 0.00 0.00 64 990.0
20260510035232 51 294 3.5 7.8 0.00 0.00 0.00 62 989.6
20260510033728 51 81 5.2 7.8 0.00 0.00 0.00 61 989.1
20260510032224 51 279 1.7 6.1 0.00 0.00 0.00 59 989.0
20260510030720 51 327 2.6 3.5 0.00 0.00 0.00 60 989.0
20260510025219 51 267 0.9 3.5 0.00 0.00 0.00 59 988.8
20260510023719 51 329 0.9 1.7 0.00 0.00 0.00 60 988.7
20260510022219 52 281 0.9 1.7 0.00 0.00 0.00 58 988.6
20260510020719 53 224 0.9 2.6 0.00 0.00 0.00 57 988.3
20260510015218 54 194 0.0 0.9 0.00 0.00 0.00 55 988.1
20260510013717 54 192 0.9 1.7 0.00 0.00 0.00 55 987.8
20260510012214 55 238 0.9 5.2 0.00 0.00 0.00 54 987.6
20260510010713 56 33 2.6 6.1 0.00 0.00 0.00 54 987.4
20260510005208 56 331 2.6 5.2 0.00 0.00 0.00 53 987.2
20260510003707 57 302 1.7 2.6 0.00 0.00 0.00 53 986.9
20260510002205 58 303 3.5 9.6 0.00 0.00 0.00 51 986.8
20260510000701 59 357 2.6 2.6 0.00 0.00 0.00 51 986.6
20260509235158 60 201 0.9 3.5 0.00 0.00 0.00 49 986.2
20260509233655 60 290 4.3 9.6 0.00 0.00 0.00 48 986.1
20260509232151 61 284 5.2 8.7 0.00 0.00 0.00 45 985.8
20260509230648 62 251 5.2 8.7 0.00 0.00 0.00 37 985.8
20260509225148 62 322 3.5 8.7 0.00 0.00 0.00 38 985.6
20260509223644 61 348 7.8 13.0 0.00 0.00 0.00 44 985.4
20260509222139 62 305 5.2 7.8 0.00 0.00 0.00 50 985.0
20260509220639 64 293 6.1 9.6 0.00 0.00 0.00 52 984.3
20260509215134 66 248 9.6 11.3 0.00 0.00 0.00 56 983.8